Weather History for KAWM - October, 2012

Change the Weather History Date:

Tuesday, October 23, 2012

  Actual Average (KMEM) Record (KMEM)
Temperature  
Mean Temperature 68 °F 62 °F  
Max Temperature 80 °F 72 °F 89 °F (1939)
Min Temperature 55 °F 52 °F 30 °F (1952)
Degree Days  
Heating Degree Days 0 5  
Month to date heating degree days 69  
Since 1 July heating degree days 80  
Cooling Degree Days 2 2  
Month to date cooling degree days 79  
Year to date cooling degree days 2230  
Growing Degree Days 18 (Base 50)    
Moisture  
Dew Point 54 °F    
Average Humidity 66    
Maximum Humidity 84    
Minimum Humidity 36    
Precipitation  
Precipitation 0.00 in 0.14 in 2.14 in (1873)
Month to date precipitation 2.89  
Year to date precipitation 41.36  
Snow  
Snow 0.00 in 0.00 in 0.00 in (2002)
Month to date snowfall 0.0  
Since 1 July snowfall 0.0  
Since 1 September snowfall 0.0  
Snow Depth -    
Sea Level Pressure  
Sea Level Pressure 30.02 in    
Wind  
Wind Speed 8 mph (South)    
Max Wind Speed 17 mph    
Max Gust Speed 24 mph    
Visibility 10 miles    
Events      
T = Trace of Precipitation, MM = Missing Value Source: NWS Daily Summary

Daily Weather History Graph

Daily Weather History Graph

Search for Another Location

Airport or City:

Trip Planner

Search our weather history database for the weather conditions in past years. The results will help you decide how hot, cold, wet, or windy it might be!

Date:

Astronomy

Oct. 23, 2012 Rise Set
Actual Time 7:14 AM CDT 6:15 PM CDT
Civil Twilight 6:48 AM CDT 6:41 PM CDT
Nautical Twilight 6:18 AM CDT 7:10 PM CDT
Astronomical Twilight 5:49 AM CDT 7:40 PM CDT
Moon 2:47 PM CDT (10/23) 1:19 AM CDT (10/23)
Length of Visible Light 11h 52m
Length of Day
11h 01m
Waxing Gibbous, 67% of the Moon is Illuminated
Oct 23
Waxing Gibbous
Oct 29
Full
Nov 6
Last Quarter
Nov 13
New
Nov 20
First Quarter

Hourly Weather History & Observations

Time (CDT) Temp. Heat Index Dew Point Humidity Pressure Visibility Wind Dir Wind Speed Gust Speed Precip Events Conditions
1:53 AM 62.1 °F - 53.1 °F 72% 30.01 in 10.0 mi South 8.1 mph - N/A   Clear
2:53 AM 57.0 °F - 52.0 °F 83% 30.02 in 10.0 mi South 5.8 mph - N/A   Clear
3:53 AM 57.0 °F - 52.0 °F 83% 30.02 in 10.0 mi South 5.8 mph - N/A   Clear
4:53 AM 55.9 °F - 51.1 °F 84% 30.03 in 10.0 mi South 4.6 mph - N/A   Clear
5:53 AM 57.0 °F - 52.0 °F 83% 30.04 in 10.0 mi South 4.6 mph - N/A   Clear
6:53 AM 57.9 °F - 53.1 °F 84% 30.05 in 10.0 mi South 5.8 mph - N/A   Clear
7:53 AM 60.1 °F - 54.0 °F 80% 30.06 in 10.0 mi South 6.9 mph - N/A   Clear
9:53 AM 69.1 °F - 59.0 °F 70% 30.08 in 10.0 mi SSW 8.1 mph - N/A   Clear
10:53 AM 75.0 °F - 61.0 °F 62% 30.07 in 10.0 mi SSW 10.4 mph - N/A   Mostly Cloudy
12:53 PM 78.1 °F - 55.0 °F 45% 30.04 in 10.0 mi South 17.3 mph 24.2 mph N/A   Clear
1:53 PM 79.0 °F - 55.0 °F 44% 30.01 in 10.0 mi SSW 10.4 mph 20.7 mph N/A   Clear
2:53 PM 80.1 °F 79.9 °F 53.1 °F 39% 29.99 in 10.0 mi South 17.3 mph 20.7 mph N/A   Clear
3:53 PM 80.1 °F - 51.1 °F 36% 29.98 in 10.0 mi South 13.8 mph - N/A   Clear
4:53 PM 79.0 °F - 52.0 °F 39% 29.97 in 10.0 mi South 12.7 mph - N/A   Clear
5:53 PM 73.9 °F - 54.0 °F 50% 29.98 in 10.0 mi South 9.2 mph - N/A   Clear
6:53 PM 66.0 °F - 54.0 °F 65% 29.99 in 10.0 mi South 6.9 mph - N/A   Clear
7:53 PM 64.0 °F - 53.1 °F 67% 29.99 in 10.0 mi South 5.8 mph - N/A   Clear
8:53 PM 62.1 °F - 53.1 °F 72% 30.00 in 10.0 mi South 6.9 mph - N/A   Clear
9:53 PM 62.1 °F - 54.0 °F 75% 30.00 in 10.0 mi South 8.1 mph - N/A   Clear
10:53 PM 60.1 °F - 53.1 °F 78% 30.01 in 10.0 mi South 4.6 mph - N/A   Clear
11:53 PM 60.1 °F - 54.0 °F 80% 30.01 in 10.0 mi SSE 3.5 mph - N/A   Clear